Location: Newark
(41.9364°N, 2.8061°E)
Time: 22:20:43
(UTC+00:00)

A-11 Canister half - Pass Details

Date: 24 February 2020
Orbit: 1516 x 1683 km, 47.2° (Epoch: 05 April)

Event Time Altitude Azimuth Distance (km) Brightness Sun altitude
Rises 19:08:42 0° 287° (WNW) 4,871 13.1 -18.7°
Reaches altitude 10° 19:11:55 10° 289° (WNW) 3,862 12.2 -19.3°
Maximum altitude 19:21:45 71° 14° (NNE) 1,659 9.1 -21.1°
Enters shadow 19:26:39 33° 90° (E) 2,396 9.4 -22.0°
